WetterOnline ( http://www.wetteronline.de )

Wetter aktuell Francorchamps

Aktuelles Wetter: Aachen-Orsbach (231m)

6-stündlich | Neueste Meldungen
Ortszeit Temperatur Wetter
Fr, 19.10. 14:00 14.5° C fast wolkenlos
Fr, 19.10. 8:00 10.7° C bedeckt
Fr, 19.10. 2:00 11.6° C bedeckt
Do, 18.10. 20:00 12.0° C wolkig
Do, 18.10. 14:00 13.8° C bewölkt
Do, 18.10. 8:00 12.5° C bedeckt
Do, 18.10. 2:00 12.0° C bewölkt
Mi, 17.10. 20:00 16.2° C wolkig
Ortszeit Temperatur Wetter
Fr, 19.10. 17:00 14.7° C fast wolkenlos
Fr, 19.10. 16:50 14.7° C wolkenlos
Fr, 19.10. 16:40 14.9° C fast wolkenlos
Fr, 19.10. 16:30 14.7° C fast wolkenlos
Fr, 19.10. 16:20 14.7° C wolkenlos
Fr, 19.10. 16:10 14.9° C wolkenlos
Fr, 19.10. 16:00 15.0° C fast wolkenlos
Fr, 19.10. 15:30 14.8° C wolkig
Fr, 19.10. 15:00 14.9° C fast wolkenlos
Fr, 19.10. 14:30 14.6° C leicht bewölkt
Fr, 19.10. 14:00 14.5° C fast wolkenlos
Ortszeit Relative Feuchte Sichtweite
Fr, 19.10. 14:00 70% 15 km
Fr, 19.10. 8:00 92% 5.0 km
Fr, 19.10. 2:00 91% 5.0 km
Do, 18.10. 20:00 89% 25 km
Do, 18.10. 14:00 79% 12 km
Do, 18.10. 8:00 94% 6 km
Do, 18.10. 2:00 93% 3.9 km
Mi, 17.10. 20:00 73% 12 km
Ortszeit Relative Feuchte Sichtweite
Fr, 19.10. 17:00 65% 18 km
Fr, 19.10. 16:50 65% -
Fr, 19.10. 16:40 63% -
Fr, 19.10. 16:30 66% 18 km
Fr, 19.10. 16:20 66% -
Fr, 19.10. 16:10 67% -
Fr, 19.10. 16:00 66% 18 km
Fr, 19.10. 15:30 66% 20 km
Fr, 19.10. 15:00 69% 15 km
Fr, 19.10. 14:30 70% 20 km
Fr, 19.10. 14:00 70% 15 km
Ortszeit Niederschlagsmenge Niederschlagsart
Fr, 19.10. 14:00 0.0 l/m2 in 6 Std. -
Fr, 19.10. 8:00 0.0 l/m2 in 12 Std. -
Fr, 19.10. 2:00 0.0 l/m2 in 6 Std. -
Do, 18.10. 20:00 0.0 l/m2 in 12 Std. -
Do, 18.10. 14:00 0.0 l/m2 in 6 Std. -
Do, 18.10. 8:00 0.0 l/m2 in 12 Std. -
Do, 18.10. 2:00 0.0 l/m2 in 6 Std. -
Mi, 17.10. 20:00 0.0 l/m2 in 12 Std. -
Ortszeit Niederschlagsmenge Niederschlagsart
Fr, 19.10. 17:00 0.0 l/m2 in 1 Std. -
Fr, 19.10. 16:50 keine Meldung -
Fr, 19.10. 16:40 keine Meldung -
Fr, 19.10. 16:30 0.0 l/m2 in 1 Std. -
Fr, 19.10. 16:20 keine Meldung -
Fr, 19.10. 16:10 keine Meldung -
Fr, 19.10. 16:00 0.0 l/m2 in 1 Std. -
Fr, 19.10. 15:30 0.0 l/m2 in 1 Std. -
Fr, 19.10. 15:00 0.0 l/m2 in 1 Std. -
Fr, 19.10. 14:30 0.0 l/m2 in 1 Std. -
Fr, 19.10. 14:00 0.0 l/m2 in 1 Std. -
Ortszeit Stärke Spitze Richtung
km/h Bft. km/h Grad Sektor
Fr, 19.10. 14:00 13 3 22 50° NO
Fr, 19.10. 8:00 13 3 22 60° NO
Fr, 19.10. 2:00 13 3 31 70° O
Do, 18.10. 20:00 11 2 25 30° NO
Do, 18.10. 14:00 11 2 22 20° N
Do, 18.10. 8:00 11 2 18 20° N
Do, 18.10. 2:00 7 2 18 10° N
Mi, 17.10. 20:00 7 2 17 10° N
Ortszeit Stärke Spitze Richtung
km/h Bft. km/h Grad Sektor
Fr, 19.10. 17:00 9 2 19 50° NO
Fr, 19.10. 16:50 9 2 - 50° NO
Fr, 19.10. 16:40 11 2 - 40° NO
Fr, 19.10. 16:30 11 2 18 60° NO
Fr, 19.10. 16:20 11 2 - 60° NO
Fr, 19.10. 16:10 11 2 - 40° NO
Fr, 19.10. 16:00 14 3 22 70° O
Fr, 19.10. 15:30 14 3 22 40° NO
Fr, 19.10. 15:00 13 3 22 50° NO
Fr, 19.10. 14:30 13 3 22 40° NO
Fr, 19.10. 14:00 13 3 20 50° NO
Ortszeit Untergrenze Bedeckung Gattung
total tief tief mittel hoch
Fr, 19.10. 14:00 390 m 1/8 1/8 Cu - Ci
Fr, 19.10. 8:00 300 m 8/8 8/8 St - -
Fr, 19.10. 2:00 210 m 8/8 8/8 - - -
Do, 18.10. 20:00 270 m 7/8 5/8 - - -
Do, 18.10. 14:00 480 m 7/8 7/8 Cu - -
Do, 18.10. 8:00 150 m 8/8 8/8 St - -
Do, 18.10. 2:00 6600 m 8/8 5/8 - - -
Mi, 17.10. 20:00 8700 m 8/8 0/8 - - -
Ortszeit Bedeckungsgrad in Achtel und Wolkenuntergrenze
Fr, 19.10. 17:00 1(4500m)
Fr, 19.10. 16:50 keine Wolken
Fr, 19.10. 16:40 1(1230m)
Fr, 19.10. 16:30 1(4500m)
Fr, 19.10. 16:20 keine Wolken
Fr, 19.10. 16:10 keine Wolken
Fr, 19.10. 16:00 1(780m)
Fr, 19.10. 15:30 8(6600m)
Fr, 19.10. 15:00 1(510m)
Fr, 19.10. 14:30 1(1230m) 5(9000m)
Fr, 19.10. 14:00 1(390m)
Ortszeit Luftdruck NN (hPa) Tendenz (hPa in 3 Std.)
Fr, 19.10. 14:00 1024 - 0,7
Fr, 19.10. 8:00 1024 + 0,3
Fr, 19.10. 2:00 1024 - 0,4
Do, 18.10. 20:00 1024 + 0,5
Do, 18.10. 14:00 1024 + 0,4
Do, 18.10. 8:00 1023 + 0,8
Do, 18.10. 2:00 1022 + 0,3
Mi, 17.10. 20:00 1020 + 1,1
Ortszeit Luftdruck NN (hPa) Tendenz (hPa in 3 Std.)
Fr, 19.10. 17:00 1023 - 0,6
Fr, 19.10. 16:50 1023 keine Meldung
Fr, 19.10. 16:40 1023 keine Meldung
Fr, 19.10. 16:30 1024 - 0,5
Fr, 19.10. 16:20 1024 keine Meldung
Fr, 19.10. 16:10 1023 keine Meldung
Fr, 19.10. 16:00 1023 - 0,6
Fr, 19.10. 15:30 1024 - 0,7
Fr, 19.10. 15:00 1024 - 0,5
Fr, 19.10. 14:30 1024 - 0,8
Fr, 19.10. 14:00 1024 - 0,7
Ortszeit Schneehöhe (cm)
Fr, 19.10. 14:00 0
Fr, 19.10. 8:00 0
Fr, 19.10. 2:00 0
Do, 18.10. 20:00 0
Do, 18.10. 14:00 0
Do, 18.10. 8:00 0
Do, 18.10. 2:00 0
Mi, 17.10. 20:00 0
Ortszeit Schneehöhe (cm)
Fr, 19.10. 17:00 0
Fr, 19.10. 16:50 0
Fr, 19.10. 16:40 0
Fr, 19.10. 16:30 0
Fr, 19.10. 16:20 0
Fr, 19.10. 16:10 0
Fr, 19.10. 16:00 0
Fr, 19.10. 15:30 0
Fr, 19.10. 15:00 0
Fr, 19.10. 14:30 0
Fr, 19.10. 14:00 0
Link zu dieser Seite / Seite empfehlen

Das Wetter in ...